User: anonymous   Login
Location: Unspecified
(0.0000°N, 0.0000°E)
Time: 18:22:17
(UTC+00:00)
Language:

STARLINK-31647 - Orbit

View from above orbital plane
View from above orbital plane
View from above satellite
View from above satellite

Ground track
Ground track

The orbit is defined by the following mean orbital elements,

1 59389U          26145.34451088 +.00000000 +00000-0 +24002-3 0 00009
2 59389  53.1588 259.9257 0001579 101.7675 258.3502 15.30203529    09
Epoch (UTC): 25 May 2026 08:16:05
Eccentricity: 0.0001579
inclination: 53.1588°
perigee height: 474 km
apogee height: 476 km
right ascension of ascending node: 259.9257°
argument of perigee: 101.7675°
revolutions per day: 15.30203529
mean anomaly at epoch: 258.3502°

The dashed part of the orbit path shows where the satellite is in the earth's shadow,  

DLR